Total_Precipitation_Accumulation
0.02 0.09 0.30 0.45 0.45 0.45 0.44 0.43 0.40 0.35 0.34 0.38 0.43 0.48 0.51 0.47 0.43 0.40 0.38 0.40 0.44 0.47 0.53 0.61 0.63 0.66 0.64 0.63 0.59 0.52 0.51 0.51 0.51 0.49 0.52 0.56 0.57 0.52 0.46 0.42 0.31 0.37 0.57
0.02 0.10 0.27 0.36 0.38 0.41 0.44 0.42 0.39 0.34 0.33 0.37 0.41 0.42 0.43 0.43 0.43 0.44 0.42 0.42 0.44 0.49 0.56 0.63 0.62 0.62 0.63 0.61 0.55 0.46 0.42 0.39 0.38 0.37 0.34 0.32 0.47 0.53 0.47 0.48 0.43 0.62 0.73
0.02 0.08 0.19 0.29 0.34 0.38 0.41 0.39 0.38 0.37 0.36 0.39 0.40 0.41 0.40 0.41 0.42 0.46 0.48 0.47 0.47 0.45 0.47 0.55 0.59 0.58 0.56 0.51 0.46 0.41 0.39 0.33 0.28 0.28 0.26 0.19 0.38 0.63 0.60 0.57 0.55 0.74 0.74
0.02 0.07 0.12 0.23 0.30 0.35 0.38 0.38 0.40 0.41 0.41 0.46 0.46 0.43 0.43 0.43 0.43 0.46 0.47 0.46 0.47 0.45 0.44 0.47 0.46 0.47 0.43 0.36 0.35 0.36 0.39 0.35 0.26 0.21 0.11 0.11 0.34 0.65 0.71 0.65 0.61 0.66 0.70
0.03 0.06 0.14 0.25 0.30 0.34 0.39 0.40 0.42 0.41 0.45 0.51 0.53 0.50 0.48 0.49 0.47 0.47 0.45 0.44 0.42 0.41 0.41 0.43 0.40 0.39 0.38 0.35 0.34 0.35 0.35 0.32 0.25 0.17 0.07 0.09 0.27 0.59 0.62 0.61 0.56 0.59 0.64
0.03 0.05 0.13 0.25 0.32 0.34 0.37 0.38 0.40 0.41 0.45 0.51 0.51 0.50 0.50 0.53 0.51 0.47 0.45 0.43 0.40 0.39 0.40 0.41 0.38 0.39 0.36 0.34 0.35 0.40 0.40 0.36 0.24 0.13 0.09 0.10 0.17 0.42 0.55 0.61 0.60 0.57 0.52
0.04 0.06 0.14 0.27 0.35 0.37 0.38 0.40 0.42 0.44 0.47 0.48 0.49 0.50 0.52 0.55 0.53 0.48 0.42 0.41 0.39 0.37 0.39 0.40 0.37 0.38 0.39 0.37 0.37 0.41 0.48 0.39 0.23 0.23 0.18 0.16 0.20 0.35 0.48 0.60 0.62 0.58 0.56
0.05 0.08 0.17 0.33 0.39 0.40 0.42 0.41 0.44 0.47 0.51 0.51 0.49 0.50 0.54 0.58 0.55 0.50 0.45 0.42 0.40 0.38 0.38 0.35 0.30 0.30 0.34 0.37 0.38 0.40 0.44 0.33 0.25 0.30 0.33 0.30 0.30 0.41 0.50 0.58 0.62 0.62 0.64
0.07 0.11 0.21 0.35 0.42 0.49 0.51 0.49 0.49 0.53 0.55 0.55 0.54 0.53 0.53 0.57 0.55 0.50 0.44 0.43 0.41 0.39 0.38 0.33 0.29 0.27 0.28 0.29 0.31 0.34 0.35 0.31 0.35 0.45 0.38 0.42 0.38 0.50 0.58 0.57 0.59 0.66 0.67
0.11 0.15 0.23 0.33 0.42 0.48 0.53 0.53 0.53 0.51 0.54 0.57 0.56 0.56 0.53 0.52 0.55 0.51 0.43 0.42 0.42 0.42 0.41 0.38 0.34 0.31 0.29 0.27 0.26 0.27 0.29 0.27 0.28 0.35 0.45 0.39 0.40 0.60 0.73 0.68 0.62 0.64 0.69
0.19 0.22 0.29 0.36 0.44 0.52 0.56 0.54 0.58 0.59 0.59 0.61 0.59 0.59 0.59 0.54 0.52 0.49 0.43 0.39 0.40 0.42 0.42 0.40 0.38 0.37 0.34 0.28 0.25 0.26 0.25 0.19 0.23 0.33 0.38 0.34 0.44 0.66 0.86 0.82 0.76 0.69 0.69
0.21 0.26 0.32 0.37 0.46 0.57 0.63 0.64 0.67 0.65 0.61 0.59 0.53 0.54 0.56 0.57 0.55 0.48 0.44 0.42 0.41 0.44 0.47 0.46 0.42 0.40 0.37 0.27 0.24 0.27 0.20 0.14 0.14 0.16 0.18 0.23 0.35 0.55 0.84 0.93 0.90 0.86 0.83
0.20 0.28 0.35 0.42 0.48 0.58 0.64 0.67 0.65 0.67 0.62 0.60 0.54 0.52 0.53 0.58 0.55 0.52 0.50 0.50 0.48 0.46 0.47 0.51 0.53 0.49 0.44 0.37 0.31 0.29 0.22 0.19 0.16 0.13 0.11 0.17 0.23 0.37 0.60 0.79 0.97 1.01 1.03
0.21 0.31 0.39 0.47 0.56 0.63 0.67 0.70 0.66 0.63 0.59 0.56 0.56 0.55 0.55 0.54 0.51 0.47 0.43 0.41 0.43 0.40 0.41 0.45 0.48 0.50 0.52 0.49 0.40 0.33 0.32 0.30 0.24 0.20 0.16 0.19 0.21 0.29 0.48 0.65 0.84 1.01 1.11
0.20 0.32 0.42 0.51 0.57 0.66 0.74 0.72 0.70 0.63 0.56 0.54 0.56 0.56 0.55 0.53 0.49 0.46 0.43 0.42 0.41 0.36 0.34 0.37 0.36 0.35 0.36 0.41 0.42 0.38 0.37 0.33 0.30 0.30 0.26 0.27 0.25 0.25 0.40 0.57 0.71 0.91 1.09
0.22 0.32 0.42 0.53 0.59 0.66 0.73 0.73 0.70 0.66 0.62 0.61 0.56 0.53 0.55 0.55 0.51 0.46 0.43 0.40 0.40 0.39 0.37 0.35 0.34 0.32 0.28 0.27 0.25 0.26 0.31 0.34 0.35 0.34 0.31 0.31 0.29 0.26 0.32 0.48 0.63 0.81 1.04
0.25 0.35 0.45 0.50 0.60 0.64 0.70 0.75 0.75 0.71 0.67 0.66 0.61 0.57 0.58 0.60 0.60 0.55 0.50 0.44 0.40 0.39 0.39 0.40 0.39 0.37 0.33 0.28 0.25 0.23 0.22 0.24 0.27 0.32 0.32 0.32 0.33 0.31 0.31 0.40 0.55 0.70 0.90
0.29 0.39 0.50 0.55 0.60 0.65 0.69 0.78 0.78 0.78 0.71 0.71 0.71 0.67 0.62 0.61 0.63 0.63 0.61 0.58 0.52 0.48 0.45 0.44 0.43 0.41 0.38 0.33 0.29 0.26 0.25 0.24 0.23 0.25 0.27 0.30 0.34 0.35 0.34 0.38 0.48 0.64 0.81
0.26 0.36 0.51 0.59 0.63 0.66 0.69 0.78 0.86 0.85 0.81 0.75 0.77 0.76 0.69 0.67 0.66 0.64 0.63 0.64 0.68 0.65 0.55 0.49 0.45 0.40 0.39 0.35 0.32 0.31 0.28 0.26 0.26 0.27 0.25 0.23 0.25 0.30 0.34 0.37 0.44 0.55 0.70
0.26 0.36 0.50 0.64 0.72 0.75 0.81 0.83 0.94 0.97 0.89 0.82 0.78 0.79 0.77 0.72 0.71 0.71 0.67 0.64 0.67 0.70 0.67 0.57 0.49 0.45 0.41 0.39 0.36 0.35 0.35 0.32 0.28 0.26 0.25 0.24 0.22 0.24 0.31 0.36 0.39 0.46 0.57
0.32 0.38 0.50 0.62 0.75 0.81 0.87 0.86 0.84 0.91 0.91 0.85 0.78 0.81 0.90 0.85 0.76 0.76 0.76 0.75 0.72 0.69 0.66 0.61 0.56 0.53 0.50 0.46 0.48 0.47 0.42 0.39 0.38 0.32 0.27 0.25 0.25 0.24 0.27 0.36 0.41 0.42 0.50
0.33 0.37 0.49 0.63 0.74 0.78 0.78 0.84 0.83 0.86 0.88 0.90 0.86 0.85 0.92 0.97 0.90 0.81 0.78 0.78 0.76 0.70 0.66 0.61 0.60 0.64 0.62 0.54 0.51 0.55 0.56 0.53 0.44 0.37 0.32 0.27 0.26 0.27 0.28 0.31 0.38 0.43 0.46
0.30 0.34 0.40 0.56 0.74 0.81 0.79 0.89 0.96 1.03 1.08 1.07 1.00 0.92 0.92 0.95 0.93 0.87 0.79 0.73 0.76 0.74 0.70 0.64 0.61 0.61 0.65 0.60 0.51 0.62 0.73 0.63 0.44 0.36 0.33 0.29 0.27 0.28 0.27 0.29 0.33 0.41 0.46
0.32 0.36 0.38 0.48 0.64 0.84 0.87 0.89 0.95 0.99 1.02 1.06 0.99 0.92 0.91 0.95 0.98 0.93 0.89 0.82 0.75 0.72 0.68 0.65 0.64 0.63 0.68 0.69 0.59 0.53 0.55 0.58 0.62 0.50 0.36 0.35 0.35 0.32 0.30 0.29 0.30 0.36 0.45
0.39 0.46 0.45 0.50 0.58 0.78 0.84 0.84 0.89 0.92 0.94 1.02 1.05 0.99 0.96 0.99 1.03 1.03 1.00 0.95 0.89 0.79 0.70 0.65 0.65 0.68 0.70 0.71 0.66 0.58 0.52 0.46 0.48 0.62 0.50 0.43 0.47 0.45 0.41 0.38 0.36 0.38 0.43
0.44 0.55 0.55 0.58 0.58 0.70 0.86 0.84 0.81 0.86 0.88 0.94 1.00 1.05 1.06 1.04 1.05 1.04 1.04 1.00 0.95 0.93 0.84 0.74 0.70 0.71 0.70 0.70 0.71 0.67 0.65 0.64 0.56 0.59 0.57 0.46 0.45 0.45 0.46 0.50 0.50 0.50 0.52